Change the Weather History Date:

Tuesday, May 13, 2014

  Actual Average Record
Temperature  
Mean Temperature 50 °F -  
Max Temperature 57 °F 64 °F 84 °F (1998)
Min Temperature 42 °F 48 °F 36 °F (2012)
Degree Days  
Heating Degree Days 16    
Moisture  
Dew Point 45 °F    
Average Humidity 77    
Maximum Humidity 100    
Minimum Humidity 47    
Precipitation  
Precipitation 0.00 in - - ()
Sea Level Pressure  
Sea Level Pressure 30.01 in    
Wind  
Wind Speed 5 mph ()    
Max Wind Speed 13 mph    
Max Gust Speed -    
Visibility 8.4 miles    
Events Rain    
Averages and records for this station are not official NWS values.
T = Trace of Precipitation, MM = Missing Value Source: Averaged Metar Reports

Daily Weather History Graph

Daily Weather History Graph

Search for Another Location

Airport or City:

Trip Planner

Search our weather history database for the weather conditions in past years. The results will help you decide how hot, cold, wet, or windy it might be!

Date:

Astronomy

May. 13, 2014 Rise Set
Actual Time 5:51 AM CEST 9:26 PM CEST
Civil Twilight 5:10 AM CEST 10:08 PM CEST
Nautical Twilight 4:13 AM CEST 11:05 PM CEST
Astronomical Twilight 2:50 AM CEST 12:31 AM CEST
Moon 8:00 PM CEST (5/13) 5:13 AM CEST (5/13)
Length of Visible Light 16h 57m
Length of Day
15h 34m
Waxing Gibbous, 98% of the Moon is Illuminated
May 13
Waxing Gibbous
May 14
Full
May 21
Last Quarter
May 28
New
Jun 5
First Quarter

Hourly Weather History & Observations

Time (CEST) Temp. Windchill Dew Point Humidity Pressure Visibility Wind Dir Wind Speed Gust Speed Precip Events Conditions
12:00 AM 48 °F - 46 °F 90% 29.88 in 7 mi SW 4.5 mph - -   Overcast
12:25 AM 48.2 °F - 46.4 °F 93% 29.89 in 6.2 mi SW 4.6 mph - N/A   Scattered Clouds
12:55 AM 48.2 °F - 46.4 °F 93% 29.86 in 6.2 mi SW 4.6 mph - N/A   Unknown
1:00 AM 49 °F - 46 °F 87% 29.88 in 25 mi WSW 4.5 mph - -   Overcast
1:25 AM 48.2 °F - 46.4 °F 93% 29.86 in 6.2 mi SW 4.6 mph - N/A   Unknown
1:55 AM 50.0 °F - 46.4 °F 87% 29.86 in 6.2 mi WSW 3.5 mph - N/A   Overcast
2:00 AM 50 °F - 47 °F 85% 29.88 in 28 mi West 2.2 mph - -   Partly Cloudy
2:25 AM 50.0 °F - 46.4 °F 87% 29.86 in 6.2 mi West 2.3 mph - N/A   Scattered Clouds
2:55 AM 48.2 °F - 46.4 °F 93% 29.86 in 6.2 mi WSW 3.5 mph - N/A   Unknown
3:00 AM 49 °F - 47 °F 91% 29.88 in 25 mi WSW 2.2 mph - -   Overcast
3:25 AM 48.2 °F - 48.2 °F 100% 29.86 in 6.2 mi West 2.3 mph - N/A   Mostly Cloudy
3:55 AM 48.2 °F - 46.4 °F 93% 29.86 in 6.2 mi West 2.3 mph - N/A   Overcast
4:00 AM 49 °F - 47 °F 88% 29.89 in 22 mi West 2.2 mph - -   Overcast
4:25 AM 48.2 °F - 46.4 °F 93% 29.89 in 6.2 mi Variable 2.3 mph - N/A   Unknown
4:55 AM 48.2 °F - 46.4 °F 93% 29.89 in 6.2 mi Variable 2.3 mph - N/A   Unknown
5:00 AM 48 °F - 47 °F 96% 29.89 in 9 mi NNW 2.2 mph - -   Overcast
5:25 AM 48.2 °F - 46.4 °F 93% 29.89 in 6.2 mi WSW 2.3 mph - N/A   Unknown
5:55 AM 48.2 °F - 46.4 °F 93% 29.89 in 5.6 mi WSW 1.2 mph - N/A   Partly Cloudy
6:00 AM 47 °F - 47 °F 100% 29.90 in 6 mi Calm Calm - -   Mist
6:25 AM 48.2 °F - 46.4 °F 93% 29.89 in 6.2 mi WSW 1.2 mph - N/A   Overcast
6:55 AM 48.2 °F - 46.4 °F 93% 29.89 in 6.2 mi Calm Calm - N/A   Overcast
7:00 AM 48 °F - 47 °F 93% 29.91 in 9 mi Calm Calm - -   Overcast
7:25 AM 48.2 °F - 48.2 °F 100% 29.92 in 6.2 mi WSW 1.2 mph - N/A   Overcast
7:55 AM 50.0 °F - 48.2 °F 94% 29.92 in 6.2 mi Variable 1.2 mph - N/A Rain Light Rain
8:00 AM 50 °F - 48 °F 89% 29.93 in 6 mi North 2.2 mph - - Rain Light Drizzle
8:25 AM 51.8 °F - 48.2 °F 88% 29.92 in 6.2 mi Variable 2.3 mph - N/A   Overcast
8:55 AM 51.8 °F - 48.2 °F 88% 29.92 in 6.2 mi Variable 2.3 mph - N/A   Overcast
9:00 AM 53 °F - 47 °F 75% 29.95 in 11 mi 2.2 mph - - Rain Drizzle
9:25 AM 51.8 °F - 46.4 °F 82% 29.95 in 6.2 mi North 5.8 mph - N/A   Mostly Cloudy
9:55 AM 53.6 °F - 46.4 °F 77% 29.95 in 6.2 mi North 6.9 mph - N/A   Mostly Cloudy
10:00 AM 53 °F - 45 °F 67% 29.97 in 16 mi North 6.7 mph - -   Overcast
10:25 AM 53.6 °F - 46.4 °F 77% 29.95 in 6.2 mi North 8.1 mph - N/A   Overcast
10:55 AM 55.4 °F - 44.6 °F 67% 29.98 in 6.2 mi NNW 8.1 mph - N/A   Overcast
11:00 AM 54 °F - 44 °F 61% 29.99 in 19 mi North 8.9 mph - -   Overcast
11:25 AM 55.4 °F - 44.6 °F 67% 29.98 in 6.2 mi North 9.2 mph - N/A   Scattered Clouds
11:55 AM 55.4 °F - 46.4 °F 72% 30.01 in 6.2 mi North 9.2 mph - N/A   Partly Cloudy
12:00 PM 55 °F - 43 °F 54% 30.01 in 19 mi North 8.9 mph - -   Overcast
12:25 PM 55.4 °F - 42.8 °F 63% 30.01 in 6.2 mi North 6.9 mph - N/A   Scattered Clouds
12:55 PM 55.4 °F - 44.6 °F 67% 30.01 in 6.2 mi NNW 10.4 mph - N/A   Mostly Cloudy
1:00 PM 55 °F - 44 °F 57% 30.03 in 14 mi NNW 11.2 mph - -   Scattered Clouds
1:25 PM 57.2 °F - 46.4 °F 67% 30.04 in 6.2 mi NNW 10.4 mph - N/A   Scattered Clouds
1:55 PM 55.4 °F - 42.8 °F 63% 30.04 in 6.2 mi NNW 12.7 mph - N/A   Scattered Clouds
2:00 PM 56 °F - 43 °F 52% 30.05 in 16 mi North 11.2 mph - -   Partly Cloudy
3:00 PM 57 °F - 43 °F 50% 30.07 in 16 mi NNW 11.2 mph - -   Mostly Cloudy
3:25 PM 57.2 °F - 42.8 °F 59% 30.06 in 6.2 mi North 10.4 mph - N/A   Scattered Clouds
3:55 PM 57.2 °F - 42.8 °F 59% 30.06 in 6.2 mi North 10.4 mph - N/A   Partly Cloudy
4:00 PM 56 °F - 42 °F 49% 30.09 in 18 mi North 11.2 mph - -   Partly Cloudy
4:55 PM 57.2 °F - 42.8 °F 59% 30.09 in 6.2 mi North 11.5 mph - N/A   Partly Cloudy
5:00 PM 56 °F - 42 °F 48% 30.11 in 19 mi North 11.2 mph - -   Scattered Clouds
5:55 PM 55.4 °F - 41.0 °F 58% 30.12 in 6.2 mi NNW 12.7 mph - N/A   Unknown
6:00 PM 56 °F - 42 °F 47% 30.13 in 19 mi North 11.2 mph - -  
6:25 PM 55.4 °F - 42.8 °F 63% 30.12 in 6.2 mi NNW 9.2 mph - N/A   Unknown
6:55 PM 55.4 °F - 41.0 °F 58% 30.12 in 6.2 mi North 9.2 mph - N/A   Unknown
7:00 PM 55 °F - 42 °F 50% 30.16 in 19 mi North 8.9 mph - -   Scattered Clouds
7:25 PM 55.4 °F - 41.0 °F 58% 30.15 in 6.2 mi NNW 8.1 mph - N/A   Unknown
7:55 PM 53.6 °F - 41.0 °F 62% 30.15 in 6.2 mi NNW 8.1 mph - N/A   Unknown
8:00 PM 53 °F - 42 °F 56% 30.18 in 18 mi NNW 6.7 mph - -   Partly Cloudy
8:25 PM 51.8 °F - 42.8 °F 71% 30.18 in 6.2 mi NNW 8.1 mph - N/A   Unknown
8:55 PM 50.0 °F - 42.8 °F 76% 30.18 in 6.2 mi NNW 6.9 mph - N/A   Unknown
9:00 PM 50 °F - 42 °F 67% 30.20 in 22 mi NNW 6.7 mph - -  
9:25 PM 48.2 °F - 42.8 °F 82% 30.18 in 6.2 mi NNW 5.8 mph - N/A   Unknown
9:55 PM 46.4 °F 44.3 °F 42.8 °F 87% 30.21 in 6.2 mi NNW 4.6 mph - N/A   Unknown
10:00 PM 46 °F - 42 °F 83% 30.22 in 22 mi NNW 4.5 mph - -  
10:25 PM 44.6 °F - 41.0 °F 87% 30.21 in 6.2 mi Variable 2.3 mph - N/A   Unknown
10:55 PM 42.8 °F - 41.0 °F 93% 30.21 in 6.2 mi Variable 2.3 mph - N/A   Unknown
11:00 PM 44 °F - 42 °F 89% 30.24 in 22 mi West 2.2 mph - -   Scattered Clouds
11:25 PM 42.8 °F 41.1 °F 41.0 °F 93% 30.24 in 6.2 mi West 3.5 mph - N/A   Unknown
11:55 PM 42.8 °F 40.1 °F 41.0 °F 93% 30.24 in 6.2 mi West 4.6 mph - N/A   Unknown